• In Österreich
  • Länderverzeichnis
  • Für 7 Tage
  • Wassertemperatur
  • Satellitenkarten
  • Wetterkarte
  • News
  • Widgets
  • user-avatar
    Anmelden

    Stündliche Wetter Mayrhofen

    Heute, 12 Dezember, Dienstag

    Zeit Temperatur Niederschläge Wind Luftdruck Luftfeuchtigkeit
    00:00 -2°C° 2,3 mm 3 m/S 600 mmHg 96%
    01:00 -2°C° 0 mm 3 m/S 601 mmHg 96%
    02:00 -2°C° 2,3 mm 3 m/S 602 mmHg 96%
    03:00 -2°C° 2,3 mm 3 m/S 602 mmHg 96%
    04:00 -2°C° 2,3 mm 2 m/S 603 mmHg 97%
    05:00 -2°C° 1 mm 2 m/S 604 mmHg 97%
    06:00 -2°C° 1 mm 2 m/S 604 mmHg 97%
    07:00 -2°C° 0 mm 3 m/S 605 mmHg 96%
    08:00 -3°C° 0,4 mm 2 m/S 606 mmHg 96%
    09:00 -3°C° 0,4 mm 2 m/S 607 mmHg 96%
    10:00 -3°C° 0,4 mm 2 m/S 608 mmHg 95%
    11:00 -3°C° 0,5 mm 2 m/S 608 mmHg 94%
    12:00 -3°C° 0,5 mm 2 m/S 609 mmHg 94%
    13:00 -4°C° 0 mm 3 m/S 610 mmHg 94%
    14:00 -4°C° 0,4 mm 2 m/S 610 mmHg 94%
    15:00 -3°C° 0,4 mm 1 m/S 610 mmHg 95%
    16:00 -3°C° 0,4 mm 1 m/S 610 mmHg 96%
    17:00 -4°C° 0,4 mm 1 m/S 610 mmHg 96%
    18:00 -6°C° 0,4 mm 1 m/S 610 mmHg 96%
    19:00 -6°C° 0,4 mm 1 m/S 611 mmHg 96%
    20:00 -7°C° 0,4 mm 1 m/S 611 mmHg 96%
    21:00 -8°C° 0,4 mm 2 m/S 611 mmHg 96%
    22:00 -8°C° 0,4 mm 2 m/S 612 mmHg 95%
    23:00 -9°C° 0,2 mm 2 m/S 612 mmHg 95%

    Morgen, 13 Dezember, Mittwoch

    Zeit Temperatur Niederschläge Wind Luftdruck Luftfeuchtigkeit
    00:00 -9°C° 0,2 mm 2 m/S 612 mmHg 94%
    01:00 -9°C° 0,2 mm 2 m/S 612 mmHg 94%
    02:00 -10°C° 0,1 mm 2 m/S 612 mmHg 93%
    03:00 -10°C° 0,1 mm 1 m/S 612 mmHg 92%
    04:00 -11°C° 0,1 mm 1 m/S 611 mmHg 91%
    05:00 -12°C° 0 mm 1 m/S 611 mmHg 90%
    06:00 -12°C° 0 mm 1 m/S 611 mmHg 89%
    07:00 -13°C° 0 mm 1 m/S 611 mmHg 88%
    08:00 -11°C° 0 mm 1 m/S 612 mmHg 85%
    09:00 -10°C° 0 mm 1 m/S 612 mmHg 83%
    10:00 -8°C° 0 mm 1 m/S 613 mmHg 81%
    11:00 -7°C° 0 mm 1 m/S 613 mmHg 79%
    12:00 -4°C° 0 mm 1 m/S 613 mmHg 77%
    13:00 -3°C° 0 mm 1 m/S 613 mmHg 75%
    14:00 -6°C° 0 mm 2 m/S 612 mmHg 78%
    15:00 -7°C° 0 mm 2 m/S 611 mmHg 82%
    16:00 -8°C° 0 mm 2 m/S 610 mmHg 85%
    17:00 -9°C° 0 mm 3 m/S 610 mmHg 85%
    18:00 -9°C° 0 mm 3 m/S 610 mmHg 84%
    19:00 -10°C° 0 mm 3 m/S 610 mmHg 84%
    20:00 -10°C° 0 mm 3 m/S 609 mmHg 83%
    21:00 -9°C° 0 mm 3 m/S 609 mmHg 83%
    22:00 -9°C° 0 mm 3 m/S 608 mmHg 82%
    23:00 -9°C° 0 mm 3 m/S 608 mmHg 81%

    übermorgen, 14 Dezember, Donnerstag

    Zeit Temperatur Niederschläge Wind Luftdruck Luftfeuchtigkeit
    00:00 -10°C° 0 mm 4 m/S 608 mmHg 80%
    01:00 -10°C° 0 mm 4 m/S 607 mmHg 78%
    02:00 -10°C° 0 mm 4 m/S 607 mmHg 77%
    03:00 -9°C° 0 mm 3 m/S 607 mmHg 77%
    04:00 -8°C° 0 mm 3 m/S 606 mmHg 76%
    05:00 -8°C° 0 mm 3 m/S 606 mmHg 76%
    06:00 -8°C° 0 mm 3 m/S 607 mmHg 76%
    07:00 -7°C° 0 mm 2 m/S 607 mmHg 77%
    08:00 -6°C° 0,1 mm 2 m/S 608 mmHg 79%
    09:00 -6°C° 0,1 mm 2 m/S 608 mmHg 81%
    10:00 -3°C° 0,1 mm 1 m/S 609 mmHg 83%
    11:00 -2°C° 0,1 mm 1 m/S 609 mmHg 83%
    12:00 -1°C° 0,1 mm 1 m/S 609 mmHg 84%
    13:00 -1°C° 0,1 mm 1 m/S 609 mmHg 84%
    14:00 -2°C° 0,1 mm 1 m/S 608 mmHg 86%
    15:00 -2°C° 0,1 mm 1 m/S 607 mmHg 87%
    16:00 -3°C° 0,1 mm 1 m/S 606 mmHg 89%
    17:00 -6°C° 0 mm 2 m/S 606 mmHg 87%
    18:00 -7°C° 0 mm 2 m/S 605 mmHg 85%
    19:00 -9°C° 0 mm 3 m/S 605 mmHg 83%
    20:00 -9°C° 0 mm 3 m/S 604 mmHg 82%
    21:00 -9°C° 0 mm 3 m/S 604 mmHg 81%
    22:00 -9°C° 0 mm 3 m/S 603 mmHg 81%
    23:00 -9°C° 0 mm 3 m/S 603 mmHg 81%

    15 Dezember, Freitag

    Zeit Temperatur Niederschläge Wind Luftdruck Luftfeuchtigkeit
    00:00 -10°C° 0 mm 4 m/S 602 mmHg 81%
    01:00 -10°C° 0 mm 4 m/S 602 mmHg 81%
    02:00 -9°C° 0,5 mm 3 m/S 602 mmHg 85%
    03:00 -8°C° 0,5 mm 2 m/S 602 mmHg 90%
    04:00 -7°C° 0,5 mm 2 m/S 602 mmHg 95%
    05:00 -7°C° 1,1 mm 2 m/S 602 mmHg 95%
    06:00 -7°C° 1,1 mm 2 m/S 602 mmHg 95%
    07:00 -7°C° 1,1 mm 2 m/S 602 mmHg 95%
    08:00 -7°C° 0,7 mm 2 m/S 602 mmHg 95%
    09:00 -7°C° 0,7 mm 2 m/S 602 mmHg 94%
    10:00 -7°C° 0,7 mm 2 m/S 602 mmHg 93%
    11:00 -7°C° 0,4 mm 2 m/S 602 mmHg 92%
    12:00 -6°C° 0,4 mm 2 m/S 603 mmHg 90%
    13:00 -6°C° 0,4 mm 2 m/S 603 mmHg 88%
    14:00 -7°C° 0,1 mm 2 m/S 603 mmHg 89%
    15:00 -6°C° 0,1 mm 1 m/S 602 mmHg 90%
    16:00 -7°C° 0,1 mm 1 m/S 602 mmHg 91%
    17:00 -8°C° 0 mm 1 m/S 602 mmHg 90%
    18:00 -9°C° 0 mm 1 m/S 602 mmHg 89%
    19:00 -12°C° 0 mm 2 m/S 602 mmHg 88%
    20:00 -11°C° 0 mm 1 m/S 602 mmHg 86%
    21:00 -11°C° 0 mm 1 m/S 602 mmHg 85%
    22:00 -12°C° 0 mm 1 m/S 602 mmHg 83%
    23:00 -11°C° 0,2 mm 1 m/S 603 mmHg 84%

    16 Dezember, Samstag

    Zeit Temperatur Niederschläge Wind Luftdruck Luftfeuchtigkeit
    00:00 -11°C° 0,2 mm 1 m/S 604 mmHg 85%
    01:00 -10°C° 0,2 mm 1 m/S 605 mmHg 87%
    02:00 -10°C° 0,1 mm 1 m/S 605 mmHg 88%
    03:00 -10°C° 0,1 mm 1 m/S 605 mmHg 89%
    04:00 -10°C° 0,1 mm 1 m/S 606 mmHg 90%
    05:00 -10°C° 0,1 mm 1 m/S 606 mmHg 90%
    06:00 -10°C° 0,1 mm 1 m/S 607 mmHg 90%
    07:00 -11°C° 0,1 mm 1 m/S 607 mmHg 90%
    08:00 -10°C° 0 mm 1 m/S 608 mmHg 89%
    09:00 -9°C° 0 mm 1 m/S 608 mmHg 88%
    10:00 -9°C° 0 mm 1 m/S 609 mmHg 87%
    11:00 -8°C° 0 mm 1 m/S 609 mmHg 83%
    12:00 -7°C° 0 mm 1 m/S 609 mmHg 79%
    13:00 -6°C° 0 mm 1 m/S 610 mmHg 75%
    14:00 -7°C° 0 mm 1 m/S 609 mmHg 79%
    15:00 -8°C° 0 mm 1 m/S 609 mmHg 83%
    16:00 -10°C° 0 mm 1 m/S 608 mmHg 86%
    17:00 -11°C° 0 mm 1 m/S 609 mmHg 86%
    18:00 -12°C° 0 mm 1 m/S 609 mmHg 86%
    19:00 -15°C° 0 mm 2 m/S 609 mmHg 86%
    20:00 -13°C° 0 mm 1 m/S 609 mmHg 84%
    21:00 -13°C° 0 mm 1 m/S 610 mmHg 83%
    22:00 -13°C° 0 mm 1 m/S 610 mmHg 81%
    23:00 -12°C° 0 mm 1 m/S 610 mmHg 81%

    17 Dezember, Sonntag

    Zeit Temperatur Niederschläge Wind Luftdruck Luftfeuchtigkeit
    00:00 -12°C° 0 mm 1 m/S 611 mmHg 82%
    01:00 -12°C° 0 mm 1 m/S 611 mmHg 82%
    02:00 -11°C° 0,1 mm 1 m/S 612 mmHg 84%
    03:00 -13°C° 0,1 mm 2 m/S 612 mmHg 86%
    04:00 -13°C° 0,1 mm 2 m/S 612 mmHg 87%
    05:00 -13°C° 0,2 mm 2 m/S 612 mmHg 89%
    06:00 -13°C° 0,2 mm 2 m/S 613 mmHg 91%
    07:00 -13°C° 0,2 mm 2 m/S 613 mmHg 92%
    08:00 -12°C° 0,1 mm 2 m/S 614 mmHg 92%
    09:00 -12°C° 0,1 mm 2 m/S 614 mmHg 91%
    10:00 -10°C° 0,1 mm 2 m/S 615 mmHg 91%
    11:00 -10°C° 0,1 mm 2 m/S 615 mmHg 88%
    12:00 -9°C° 0,1 mm 2 m/S 616 mmHg 86%
    13:00 -9°C° 0,1 mm 2 m/S 616 mmHg 83%
    14:00 -9°C° 0,1 mm 2 m/S 616 mmHg 86%
    15:00 -10°C° 0,1 mm 2 m/S 616 mmHg 89%
    16:00 -12°C° 0,1 mm 2 m/S 616 mmHg 92%
    17:00 -12°C° 0,2 mm 2 m/S 616 mmHg 92%
    18:00 -13°C° 0,2 mm 2 m/S 617 mmHg 93%
    19:00 -13°C° 0,2 mm 2 m/S 617 mmHg 93%
    20:00 -14°C° 0,1 mm 2 m/S 617 mmHg 93%
    21:00 -14°C° 0,1 mm 2 m/S 617 mmHg 93%
    22:00 -15°C° 0,1 mm 2 m/S 618 mmHg 93%
    23:00 -16°C° 0 mm 2 m/S 618 mmHg 92%
    Mehr zeigen